TimeSAST,TemperatureF,Dew PointF,Humidity,Sea Level PressureIn,VisibilityMPH,Wind Direction,Wind SpeedMPH,Gust SpeedMPH,PrecipitationIn,Events,Conditions,WindDirDegrees,DateUTC
12:00 AM,59.0,42.8,55,29.77,-9999.0,West,11.5,-,N/A,,Clear,270,2013-07-26 22:00:00
1:00 AM,60.8,42.8,52,29.77,-9999.0,WSW,15.0,-,N/A,,Clear,250,2013-07-26 23:00:00
2:00 AM,56,47,62,29.78,19,SW,12.7,,,,,220,2013-07-27 00:00:00
2:00 AM,55.4,46.4,72,29.77,-9999.0,SW,12.7,-,N/A,,Clear,220,2013-07-27 00:00:00
3:00 AM,53.6,50.0,88,29.80,6.2,WNW,6.9,-,N/A,,Mostly Cloudy,290,2013-07-27 01:00:00
4:00 AM,51.8,48.2,88,29.80,6.2,NW,6.9,-,N/A,,Scattered Clouds,310,2013-07-27 02:00:00
5:00 AM,52,47,79,29.82,12,NNW,5.8,,,,Mostly Cloudy,330,2013-07-27 03:00:00
5:00 AM,51.8,48.2,88,29.80,6.2,NNW,5.8,-,N/A,,Mostly Cloudy,330,2013-07-27 03:00:00
6:00 AM,51.8,50.0,94,29.83,4.3,SW,11.5,-,N/A,,Light Drizzle,230,2013-07-27 04:00:00
7:00 AM,51.8,48.2,88,29.83,3.7,West,13.8,-,N/A,,Light Drizzle,260,2013-07-27 05:00:00
8:00 AM,51,49,92,29.87,3,West,9.2,,,Rain,Light Drizzle,270,2013-07-27 06:00:00
8:00 AM,51.8,50.0,94,29.86,3.1,West,9.2,-,N/A,,Light Drizzle,270,2013-07-27 06:00:00
9:00 AM,51.8,48.2,88,29.86,6.2,NW,11.5,-,N/A,,Mostly Cloudy,320,2013-07-27 07:00:00
10:00 AM,51.8,48.2,88,29.89,6.2,WNW,9.2,-,N/A,,Mostly Cloudy,300,2013-07-27 08:00:00
11:00 AM,54,48,72,29.90,12,West,9.2,,,,Partly Cloudy,270,2013-07-27 09:00:00
12:00 PM,57.2,48.2,72,29.89,6.2,West,15.0,-,N/A,,Scattered Clouds,260,2013-07-27 10:00:00
1:00 PM,57.2,46.4,67,29.86,6.2,West,11.5,-,N/A,,Scattered Clouds,260,2013-07-27 11:00:00
2:00 PM,57,46,57,29.85,12,WSW,10.4,,,,Partly Cloudy,250,2013-07-27 12:00:00
2:00 PM,57.2,46.4,67,29.83,6.2,WSW,10.4,-,N/A,,Scattered Clouds,250,2013-07-27 12:00:00
3:00 PM,59.0,46.4,63,29.86,6.2,West,6.9,-,N/A,,Mostly Cloudy,280,2013-07-27 13:00:00
4:00 PM,57.2,46.4,67,29.86,6.2,SW,10.4,-,N/A,,Mostly Cloudy,230,2013-07-27 14:00:00
5:00 PM,56,46,60,29.89,12,WSW,6.9,,,,Mostly Cloudy,250,2013-07-27 15:00:00
5:00 PM,55.4,46.4,72,29.89,6.2,WSW,6.9,-,N/A,,Mostly Cloudy,250,2013-07-27 15:00:00
6:00 PM,53.6,46.4,77,29.89,6.2,West,11.5,-,N/A,,Scattered Clouds,270,2013-07-27 16:00:00
7:00 PM,53.6,44.6,72,29.92,6.2,West,10.4,-,N/A,,Scattered Clouds,260,2013-07-27 17:00:00
8:00 PM,51,45,73,29.97,12,West,9.2,,,Rain,Light Rain,280,2013-07-27 18:00:00
8:00 PM,51.8,44.6,76,29.95,6.2,West,9.2,-,N/A,,Scattered Clouds,280,2013-07-27 18:00:00
9:00 PM,50.0,44.6,82,29.98,6.2,NW,8.1,-,N/A,,Scattered Clouds,320,2013-07-27 19:00:00
10:00 PM,50.0,44.6,82,30.01,6.2,NW,10.4,-,N/A,,Scattered Clouds,310,2013-07-27 20:00:00
11:00 PM,48.2,42.8,82,30.01,6.2,WNW,9.2,-,N/A,,Partly Cloudy,300,2013-07-27 21:00:00